User: anonymous
Location: Limerick
(52.6800°N, 8.6400°W)
Time: 09:43:19
(UTC+01:00)
Language:

Sapphire - Orbit

View from above orbital plane
View from above orbital plane
View from above satellite
View from above satellite

Ground track
Ground track

The orbit data is extracted from the following two-line orbital elements,

1 26932U 01043D   14292.79166320  .00000166  00000-0  96250-4 0  7416
2 26932 067.0571 078.2081 0007943 288.5040 071.5198 14.30042840681468
Epoch (UTC): 19 October 2014 18:59:59
Eccentricity: 0.0007943
inclination: 67.0571°
perigee height: 786 km
apogee height: 797 km
right ascension of ascending node: 78.2081°
argument of perigee: 288.5040°
revolutions per day: 14.30042840
mean anomaly at epoch: 71.5198°
orbit number at epoch: 68146

The dashed part of the orbit path shows where the satellite is in the earth's shadow,  

DLR